Orbital Elements at Epoch 2459200.5 (2020-Dec-17.0) TDB
Reference: JPL 20 (heliocentric ecliptic J2000)
Element | Value | Uncertainty (1-sigma) | Units |
e | .2418447841959146 | 1.3797e-07 | |
a | 2.474412304041554 | 2.0293e-08 | au |
q | 1.875988594358908 | 3.2742e-07 | au |
i | 6.053410086560535 | 5.8791e-06 | deg |
node | 186.2713685735345 | 4.6138e-05 | deg |
peri | 235.6023671596579 | 4.8256e-05 | deg |
M | 115.7104825345718 | 9.6583e-06 | deg |
tp | 2458743.541531118328 (2019-Sep-17.04153112) | 3.6171e-05 | TDB |
period | 1421.695296692341 3.89 | 1.749e-05 4.789e-08 | d yr |
n | .2532188161820338 | 3.1151e-09 | deg/d |
Q | 3.072836013724199 | 2.5201e-08 | au |
|
| | Orbit Determination Parameters
Additional Information
|